Time,TemperatureF,DewpointF,PressureIn,WindDirection,WindDirectionDegrees,WindSpeedMPH,WindSpeedGustMPH,Humidity,HourlyPrecipIn,Conditions,Clouds,dailyrainin,SoftwareType,DateUTC
2013-05-27 10:31:00,69.9,33.4,29.82,SE,136,1.0,2.0,26,0.00,,,0.00,Wunderground v.1.15,2013-05-27 18:31:00,
2013-05-27 10:36:00,70.4,33.9,29.82,ENE,57,1.0,3.0,26,0.00,,,0.00,Wunderground v.1.15,2013-05-27 18:36:00,
2013-05-27 10:41:00,70.8,34.2,29.82,SE,144,0.0,1.0,26,0.00,,,0.00,Wunderground v.1.15,2013-05-27 18:41:00,
2013-05-27 10:46:00,70.6,34.0,29.81,SSE,162,1.0,5.0,26,0.00,,,0.00,Wunderground v.1.15,2013-05-27 18:46:00,
2013-05-27 10:51:00,70.1,33.6,29.81,South,169,2.0,5.0,26,0.00,,,0.00,Wunderground v.1.15,2013-05-27 18:51:00,
2013-05-27 10:56:00,69.9,33.4,29.81,SW,216,3.0,5.0,26,0.00,,,0.00,Wunderground v.1.15,2013-05-27 18:56:00,
2013-05-27 11:01:00,69.8,34.3,29.81,SW,214,2.0,4.0,27,0.00,,,0.00,Wunderground v.1.15,2013-05-27 19:01:00,
2013-05-27 11:06:00,69.9,34.4,29.81,SSW,209,3.0,6.0,27,0.00,,,0.00,Wunderground v.1.15,2013-05-27 19:06:00,
2013-05-27 11:11:00,70.3,33.8,29.81,SSW,199,1.0,2.0,26,0.00,,,0.00,Wunderground v.1.15,2013-05-27 19:11:00,
2013-05-27 11:16:00,70.8,33.2,29.81,South,184,4.0,6.0,25,0.00,,,0.00,Wunderground v.1.15,2013-05-27 19:16:00,
2013-05-27 11:21:00,70.6,33.0,29.81,West,264,0.0,6.0,25,0.00,,,0.00,Wunderground v.1.15,2013-05-27 19:21:00,
2013-05-27 11:26:00,70.9,32.3,29.81,ESE,117,1.0,6.0,24,0.00,,,0.00,Wunderground v.1.15,2013-05-27 19:26:00,
2013-05-27 11:31:00,71.1,33.5,29.81,South,178,2.0,11.0,25,0.00,,,0.00,Wunderground v.1.15,2013-05-27 19:31:00,
2013-05-27 11:37:00,71.5,32.8,29.81,SE,144,1.0,11.0,24,0.00,,,0.00,Wunderground v.1.15,2013-05-27 19:37:00,
2013-05-27 11:42:00,70.9,33.3,29.81,SSW,211,0.0,5.0,25,0.00,,,0.00,Wunderground v.1.15,2013-05-27 19:42:00,
2013-05-27 11:47:00,70.9,32.3,29.81,ESE,121,3.0,10.0,24,0.00,,,0.00,Wunderground v.1.15,2013-05-27 19:47:00,
2013-05-27 11:52:00,71.3,32.6,29.81,SW,224,4.0,4.0,24,0.00,,,0.00,Wunderground v.1.15,2013-05-27 19:52:00,
2013-05-27 11:57:00,71.8,33.0,29.81,SE,136,2.0,4.0,24,0.00,,,0.00,Wunderground v.1.15,2013-05-27 19:57:00,
2013-05-27 12:02:00,71.8,34.1,29.81,SSE,159,5.0,5.0,25,0.00,,,0.00,Wunderground v.1.15,2013-05-27 20:02:00,
2013-05-27 12:07:00,72.1,33.3,29.81,SSW,212,3.0,7.0,24,0.00,,,0.00,Wunderground v.1.15,2013-05-27 20:07:00,
2013-05-27 12:12:00,71.6,32.9,29.81,SW,215,3.0,8.0,24,0.00,,,0.00,Wunderground v.1.15,2013-05-27 20:12:00,
2013-05-27 12:17:00,71.5,33.8,29.80,South,186,3.0,8.0,25,0.00,,,0.00,Wunderground v.1.15,2013-05-27 20:17:00,
2013-05-27 12:22:00,72.0,33.2,29.80,SSE,160,3.0,5.0,24,0.00,,,0.00,Wunderground v.1.15,2013-05-27 20:22:00,
2013-05-27 12:27:00,72.3,33.5,29.80,SSW,196,5.0,5.0,24,0.00,,,0.00,Wunderground v.1.15,2013-05-27 20:27:00,
2013-05-27 12:32:00,72.3,33.5,29.80,SW,227,2.0,8.0,24,0.00,,,0.00,Wunderground v.1.15,2013-05-27 20:32:00,
2013-05-27 12:37:00,72.3,33.5,29.80,SE,133,1.0,8.0,24,0.00,,,0.00,Wunderground v.1.15,2013-05-27 20:37:00,
2013-05-27 12:42:00,72.5,34.7,29.80,WNW,284,2.0,8.0,25,0.00,,,0.00,Wunderground v.1.15,2013-05-27 20:42:00,
2013-05-27 12:47:00,72.5,33.6,29.80,SW,227,0.0,8.0,24,0.00,,,0.00,Wunderground v.1.15,2013-05-27 20:47:00,
2013-05-27 12:52:00,73.3,34.3,29.80,South,190,4.0,4.0,24,0.00,,,0.00,Wunderground v.1.15,2013-05-27 20:52:00,
2013-05-27 12:57:00,73.2,34.2,29.80,WSW,238,0.0,5.0,24,0.00,,,0.00,Wunderground v.1.15,2013-05-27 20:57:00,
2013-05-27 13:02:00,73.3,34.3,29.79,WSW,245,4.0,5.0,24,0.00,,,0.00,Wunderground v.1.15,2013-05-27 21:02:00,
2013-05-27 13:07:00,73.5,34.5,29.79,SSE,154,3.0,5.0,24,0.00,,,0.00,Wunderground v.1.15,2013-05-27 21:07:00,
2013-05-27 13:12:00,74.0,33.8,29.79,SSW,196,0.0,2.0,23,0.00,,,0.00,Wunderground v.1.15,2013-05-27 21:12:00,
2013-05-27 13:17:00,73.9,33.7,29.79,NNE,17,3.0,6.0,23,0.00,,,0.00,Wunderground v.1.15,2013-05-27 21:17:00,
2013-05-27 13:22:00,74.2,34.0,29.79,ESE,117,0.0,3.0,23,0.00,,,0.00,Wunderground v.1.15,2013-05-27 21:22:00,
2013-05-27 13:27:00,75.4,37.1,29.79,SSW,206,1.0,5.0,25,0.00,,,0.00,Wunderground v.1.15,2013-05-27 21:27:00,
2013-05-27 13:32:00,75.8,35.3,29.79,SSW,200,2.0,9.0,23,0.00,,,0.00,Wunderground v.1.15,2013-05-27 21:32:00,
2013-05-27 13:37:00,76.0,34.4,29.79,SE,126,3.0,10.0,22,0.00,,,0.00,Wunderground v.1.15,2013-05-27 21:37:00,
2013-05-27 13:43:00,75.6,35.2,29.79,South,175,4.0,6.0,23,0.00,,,0.00,Wunderground v.1.15,2013-05-27 21:43:00,
2013-05-27 13:48:00,75.4,35.0,29.78,SW,215,4.0,9.0,23,0.00,,,0.00,Wunderground v.1.15,2013-05-27 21:48:00,
2013-05-27 13:53:00,75.6,34.1,29.78,South,176,0.0,3.0,22,0.00,,,0.00,Wunderground v.1.15,2013-05-27 21:53:00,
2013-05-27 13:58:00,75.8,35.3,29.78,ESE,123,3.0,5.0,23,0.00,,,0.00,Wunderground v.1.15,2013-05-27 21:58:00,
2013-05-27 14:03:00,76.0,34.4,29.78,SSE,161,4.0,10.0,22,0.00,,,0.00,Wunderground v.1.15,2013-05-27 22:03:00,
2013-05-27 14:08:00,76.3,34.6,29.78,SSW,207,1.0,10.0,22,0.00,,,0.00,Wunderground v.1.15,2013-05-27 22:08:00,
2013-05-27 14:13:00,76.5,33.6,29.78,South,176,0.0,5.0,21,0.00,,,0.00,Wunderground v.1.15,2013-05-27 22:13:00,
2013-05-27 14:18:00,76.7,35.0,29.77,WSW,254,2.0,8.0,22,0.00,,,0.00,Wunderground v.1.15,2013-05-27 22:18:00,
2013-05-27 14:23:00,76.3,33.5,29.77,SSW,194,1.0,9.0,21,0.00,,,0.00,Wunderground v.1.15,2013-05-27 22:23:00,
2013-05-27 14:28:00,76.5,35.9,29.77,WSW,250,1.0,9.0,23,0.00,,,0.00,Wunderground v.1.15,2013-05-27 22:28:00,
2013-05-27 14:33:00,76.7,33.8,29.77,SSE,163,3.0,7.0,21,0.00,,,0.00,Wunderground v.1.15,2013-05-27 22:33:00,
2013-05-27 14:38:00,76.7,33.8,29.77,SE,130,0.0,7.0,21,0.00,,,0.00,Wunderground v.1.15,2013-05-27 22:38:00,
2013-05-27 14:43:00,77.0,34.1,29.77,NE,52,0.0,4.0,21,0.00,,,0.00,Wunderground v.1.15,2013-05-27 22:43:00,
2013-05-27 14:48:00,77.6,34.6,29.76,East,87,1.0,9.0,21,0.00,,,0.00,Wunderground v.1.15,2013-05-27 22:48:00,
2013-05-27 14:53:00,77.2,34.2,29.76,South,178,2.0,13.0,21,0.00,,,0.00,Wunderground v.1.15,2013-05-27 22:53:00,
2013-05-27 14:58:00,77.0,34.1,29.76,West,264,7.0,13.0,21,0.00,,,0.00,Wunderground v.1.15,2013-05-27 22:58:00,
2013-05-27 15:03:00,77.2,34.2,29.76,SSW,197,2.0,10.0,21,0.00,,,0.00,Wunderground v.1.15,2013-05-27 23:03:00,
2013-05-27 15:08:00,76.8,33.9,29.76,SSW,199,0.0,10.0,21,0.00,,,0.00,Wunderground v.1.15,2013-05-27 23:08:00,
2013-05-27 15:13:00,77.2,34.2,29.76,West,260,0.0,8.0,21,0.00,,,0.00,Wunderground v.1.15,2013-05-27 23:13:00,
2013-05-27 15:18:00,77.7,34.6,29.76,South,186,1.0,9.0,21,0.00,,,0.00,Wunderground v.1.15,2013-05-27 23:18:00,
2013-05-27 15:23:00,77.4,34.4,29.76,SSW,194,6.0,6.0,21,0.00,,,0.00,Wunderground v.1.15,2013-05-27 23:23:00,
2013-05-27 15:28:00,77.4,34.4,29.76,NNW,348,1.0,9.0,21,0.00,,,0.00,Wunderground v.1.15,2013-05-27 23:28:00,
2013-05-27 15:33:00,77.0,34.1,29.76,SSE,165,0.0,9.0,21,0.00,,,0.00,Wunderground v.1.15,2013-05-27 23:33:00,
2013-05-27 15:38:00,76.8,33.9,29.76,ESE,115,2.0,9.0,21,0.00,,,0.00,Wunderground v.1.15,2013-05-27 23:38:00,
2013-05-27 15:43:00,76.8,33.9,29.76,SSW,202,2.0,4.0,21,0.00,,,0.00,Wunderground v.1.15,2013-05-27 23:43:00,
2013-05-27 15:48:00,77.2,34.2,29.75,SW,218,0.0,5.0,21,0.00,,,0.00,Wunderground v.1.15,2013-05-27 23:48:00,
2013-05-27 15:53:00,77.9,34.8,29.75,SW,228,1.0,3.0,21,0.00,,,0.00,Wunderground v.1.15,2013-05-27 23:53:00,
2013-05-27 15:59:00,78.5,35.3,29.75,WSW,240,1.0,5.0,21,0.00,,,0.00,Wunderground v.1.15,2013-05-27 23:59:00,
2013-05-27 16:04:00,78.3,33.9,29.75,SE,126,6.0,7.0,20,0.00,,,0.00,Wunderground v.1.15,2013-05-28 00:04:00,
2013-05-27 16:09:00,77.7,34.6,29.75,SW,227,1.0,7.0,21,0.00,,,0.00,Wunderground v.1.15,2013-05-28 00:09:00,
2013-05-27 16:14:00,78.1,35.0,29.75,WSW,241,4.0,7.0,21,0.00,,,0.00,Wunderground v.1.15,2013-05-28 00:14:00,
2013-05-27 16:19:00,77.9,34.8,29.75,SW,232,0.0,7.0,21,0.00,,,0.00,Wunderground v.1.15,2013-05-28 00:19:00,
2013-05-27 16:24:00,78.3,35.1,29.75,South,183,2.0,4.0,21,0.00,,,0.00,Wunderground v.1.15,2013-05-28 00:24:00,
2013-05-27 16:29:00,78.5,35.3,29.75,WSW,238,5.0,6.0,21,0.00,,,0.00,Wunderground v.1.15,2013-05-28 00:29:00,
2013-05-27 16:34:00,78.5,34.1,29.74,SW,221,1.0,4.0,20,0.00,,,0.00,Wunderground v.1.15,2013-05-28 00:34:00,
2013-05-27 16:39:00,78.1,35.0,29.74,WNW,283,3.0,4.0,21,0.00,,,0.00,Wunderground v.1.15,2013-05-28 00:39:00,
2013-05-27 16:44:00,78.5,35.3,29.74,SSE,153,3.0,3.0,21,0.00,,,0.00,Wunderground v.1.15,2013-05-28 00:44:00,
2013-05-27 16:49:00,78.8,35.5,29.74,East,96,3.0,5.0,21,0.00,,,0.00,Wunderground v.1.15,2013-05-28 00:49:00,
2013-05-27 16:54:00,79.0,34.5,29.74,East,94,1.0,3.0,20,0.00,,,0.00,Wunderground v.1.15,2013-05-28 00:54:00,
2013-05-27 16:59:00,78.6,35.4,29.74,ESE,120,0.0,3.0,21,0.00,,,0.00,Wunderground v.1.15,2013-05-28 00:59:00,
2013-05-27 17:04:00,78.1,33.7,29.74,NE,43,1.0,6.0,20,0.00,,,0.00,Wunderground v.1.15,2013-05-28 01:04:00,
2013-05-27 17:09:00,77.6,33.3,29.74,East,80,0.0,6.0,20,0.00,,,0.00,Wunderground v.1.15,2013-05-28 01:09:00,
2013-05-27 17:14:00,77.4,33.2,29.74,East,101,2.0,5.0,20,0.00,,,0.00,Wunderground v.1.15,2013-05-28 01:14:00,
2013-05-27 17:20:00,77.2,34.2,29.74,NNE,30,1.0,2.0,21,0.00,,,0.00,Wunderground v.1.15,2013-05-28 01:20:00,
2013-05-27 17:25:00,76.8,33.9,29.74,East,86,1.0,4.0,21,0.00,,,0.00,Wunderground v.1.15,2013-05-28 01:25:00,
2013-05-27 17:30:00,76.8,33.9,29.74,ESE,108,2.0,2.0,21,0.00,,,0.00,Wunderground v.1.15,2013-05-28 01:30:00,
2013-05-27 17:35:00,76.7,33.8,29.74,ENE,65,2.0,5.0,21,0.00,,,0.00,Wunderground v.1.15,2013-05-28 01:35:00,
2013-05-27 17:40:00,76.5,33.6,29.74,ESE,105,3.0,3.0,21,0.00,,,0.00,Wunderground v.1.15,2013-05-28 01:40:00,
2013-05-27 17:45:00,76.7,33.8,29.74,SSE,165,1.0,5.0,21,0.00,,,0.00,Wunderground v.1.15,2013-05-28 01:45:00,
2013-05-27 17:50:00,76.7,33.8,29.74,NE,44,0.0,2.0,21,0.00,,,0.00,Wunderground v.1.15,2013-05-28 01:50:00,
2013-05-27 17:55:00,76.7,35.0,29.74,NE,35,0.0,3.0,22,0.00,,,0.00,Wunderground v.1.15,2013-05-28 01:55:00,
2013-05-27 18:00:00,76.7,33.8,29.74,ENE,76,3.0,3.0,21,0.00,,,0.00,Wunderground v.1.15,2013-05-28 02:00:00,
2013-05-27 18:05:00,77.6,34.6,29.73,NNE,31,5.0,5.0,21,0.00,,,0.00,Wunderground v.1.15,2013-05-28 02:05:00,
2013-05-27 18:10:00,78.1,33.7,29.73,ESE,123,0.0,2.0,20,0.00,,,0.00,Wunderground v.1.15,2013-05-28 02:10:00,
2013-05-27 18:15:00,78.1,33.7,29.73,ESE,117,3.0,5.0,20,0.00,,,0.00,Wunderground v.1.15,2013-05-28 02:15:00,
2013-05-27 18:20:00,77.7,33.4,29.73,East,101,3.0,5.0,20,0.00,,,0.00,Wunderground v.1.15,2013-05-28 02:20:00,
2013-05-27 18:25:00,77.2,33.0,29.73,East,86,3.0,6.0,20,0.00,,,0.00,Wunderground v.1.15,2013-05-28 02:25:00,
2013-05-27 18:30:00,77.0,34.1,29.73,SE,130,0.0,2.0,21,0.00,,,0.00,Wunderground v.1.15,2013-05-28 02:30:00,
2013-05-27 18:35:00,77.0,34.1,29.73,NE,52,1.0,4.0,21,0.00,,,0.00,Wunderground v.1.15,2013-05-28 02:35:00,
2013-05-27 18:40:00,76.8,33.9,29.73,NNE,31,0.0,1.0,21,0.00,,,0.00,Wunderground v.1.15,2013-05-28 02:40:00,
2013-05-27 18:45:00,76.7,35.0,29.73,ENE,59,0.0,4.0,22,0.00,,,0.00,Wunderground v.1.15,2013-05-28 02:45:00,
2013-05-27 18:51:00,76.5,33.6,29.73,SE,124,0.0,2.0,21,0.00,,,0.00,Wunderground v.1.15,2013-05-28 02:51:00,
2013-05-27 18:56:00,76.5,34.8,29.73,ESE,122,0.0,2.0,22,0.00,,,0.00,Wunderground v.1.15,2013-05-28 02:56:00,
2013-05-27 19:01:00,76.3,34.6,29.73,SSE,164,0.0,1.0,22,0.00,,,0.00,Wunderground v.1.15,2013-05-28 03:01:00,
2013-05-27 19:06:00,76.5,33.6,29.73,SSE,164,0.0,1.0,21,0.00,,,0.00,Wunderground v.1.15,2013-05-28 03:06:00,
2013-05-27 19:11:00,76.5,33.6,29.73,SE,146,0.0,1.0,21,0.00,,,0.00,Wunderground v.1.15,2013-05-28 03:11:00,
2013-05-27 19:16:00,76.3,34.6,29.73,East,88,0.0,3.0,22,0.00,,,0.00,Wunderground v.1.15,2013-05-28 03:16:00,
2013-05-27 19:21:00,76.5,34.8,29.72,East,88,0.0,1.0,22,0.00,,,0.00,Wunderground v.1.15,2013-05-28 03:21:00,
2013-05-27 19:26:00,76.7,33.8,29.72,East,84,2.0,2.0,21,0.00,,,0.00,Wunderground v.1.15,2013-05-28 03:26:00,
2013-05-27 19:31:00,76.5,34.8,29.71,ENE,75,1.0,1.0,22,0.00,,,0.00,Wunderground v.1.15,2013-05-28 03:31:00,
2013-05-27 19:36:00,76.5,33.6,29.71,ENE,78,0.0,3.0,21,0.00,,,0.00,Wunderground v.1.15,2013-05-28 03:36:00,
2013-05-27 19:41:00,76.8,33.9,29.71,ENE,78,0.0,1.0,21,0.00,,,0.00,Wunderground v.1.15,2013-05-28 03:41:00,
2013-05-27 19:46:00,77.0,34.1,29.71,ENE,78,0.0,1.0,21,0.00,,,0.00,Wunderground v.1.15,2013-05-28 03:46:00,
2013-05-27 19:51:00,77.4,34.4,29.71,ENE,78,1.0,1.0,21,0.00,,,0.00,Wunderground v.1.15,2013-05-28 03:51:00,
2013-05-27 19:56:00,77.2,34.2,29.71,NE,49,1.0,3.0,21,0.00,,,0.00,Wunderground v.1.15,2013-05-28 03:56:00,
2013-05-27 20:01:00,76.8,35.1,29.71,NW,322,0.0,2.0,22,0.00,,,0.00,Wunderground v.1.15,2013-05-28 04:01:00,
2013-05-27 20:02:00,76.7,35.0,29.71,NW,323,1.0,2.0,22,0.00,,,0.00,Wunderground v.1.15,2013-05-28 04:02:00,
2013-05-27 20:03:00,76.7,35.0,29.71,NNW,348,3.0,4.0,22,0.00,,,0.00,Wunderground v.1.15,2013-05-28 04:03:00,
2013-05-27 20:08:00,76.1,35.6,29.71,North,5,1.0,4.0,23,0.00,,,0.00,Wunderground v.1.15,2013-05-28 04:08:00,
2013-05-27 20:13:00,75.6,35.2,29.71,North,5,0.0,1.0,23,0.00,,,0.00,Wunderground v.1.15,2013-05-28 04:13:00,
2013-05-27 20:18:00,75.3,36.0,29.71,North,5,0.0,2.0,24,0.00,,,0.00,Wunderground v.1.15,2013-05-28 04:18:00,
2013-05-27 20:23:00,74.9,35.7,29.71,North,5,0.0,2.0,24,0.00,,,0.00,Wunderground v.1.15,2013-05-28 04:23:00,
2013-05-27 20:28:00,74.7,36.5,29.71,North,5,0.0,2.0,25,0.00,,,0.00,Wunderground v.1.15,2013-05-28 04:28:00,
2013-05-27 20:33:00,74.6,36.4,29.71,North,5,0.0,0.0,25,0.00,,,0.00,Wunderground v.1.15,2013-05-28 04:33:00,
2013-05-27 20:38:00,74.4,37.3,29.71,North,5,0.0,0.0,26,0.00,,,0.00,Wunderground v.1.15,2013-05-28 04:38:00,
2013-05-27 20:43:00,74.0,36.9,29.71,North,5,0.0,1.0,26,0.00,,,0.00,Wunderground v.1.15,2013-05-28 04:43:00,
2013-05-27 20:48:00,73.9,36.8,29.71,North,5,0.0,1.0,26,0.00,,,0.00,Wunderground v.1.15,2013-05-28 04:48:00,
2013-05-27 20:53:00,73.5,35.5,29.71,North,5,0.0,1.0,25,0.00,,,0.00,Wunderground v.1.15,2013-05-28 04:53:00,
2013-05-27 20:59:00,73.3,35.3,29.71,North,5,0.0,1.0,25,0.00,,,0.00,Wunderground v.1.15,2013-05-28 04:59:00,
2013-05-27 21:04:00,73.3,35.3,29.71,North,5,1.0,1.0,25,0.00,,,0.00,Wunderground v.1.15,2013-05-28 05:04:00,
2013-05-27 21:09:00,73.2,36.2,29.71,North,5,0.0,1.0,26,0.00,,,0.00,Wunderground v.1.15,2013-05-28 05:09:00,
2013-05-27 21:14:00,73.0,36.1,29.71,North,5,0.0,0.0,26,0.00,,,0.00,Wunderground v.1.15,2013-05-28 05:14:00,
2013-05-27 21:19:00,72.7,35.8,29.71,North,5,0.0,0.0,26,0.00,,,0.00,Wunderground v.1.15,2013-05-28 05:19:00,
2013-05-27 21:24:00,72.3,36.4,29.71,North,5,0.0,1.0,27,0.00,,,0.00,Wunderground v.1.15,2013-05-28 05:24:00,
2013-05-27 21:29:00,72.0,37.1,29.71,North,5,0.0,1.0,28,0.00,,,0.00,Wunderground v.1.15,2013-05-28 05:29:00,
2013-05-27 21:34:00,71.6,35.8,29.70,North,5,0.0,0.0,27,0.00,,,0.00,Wunderground v.1.15,2013-05-28 05:34:00,
2013-05-27 21:39:00,71.3,36.5,29.70,North,5,0.0,0.0,28,0.00,,,0.00,Wunderground v.1.15,2013-05-28 05:39:00,
2013-05-27 21:44:00,70.9,36.1,29.70,North,5,0.0,0.0,28,0.00,,,0.00,Wunderground v.1.15,2013-05-28 05:44:00,
2013-05-27 21:49:00,70.6,36.8,29.71,North,5,0.0,0.0,29,0.00,,,0.00,Wunderground v.1.15,2013-05-28 05:49:00,
2013-05-27 21:54:00,70.4,36.6,29.71,North,5,0.0,1.0,29,0.00,,,0.00,Wunderground v.1.15,2013-05-28 05:54:00,
2013-05-27 21:59:00,70.1,37.2,29.71,North,5,0.0,1.0,30,0.00,,,0.00,Wunderground v.1.15,2013-05-28 05:59:00,
2013-05-27 22:04:00,69.6,36.8,29.71,North,5,0.0,1.0,30,0.00,,,0.00,Wunderground v.1.15,2013-05-28 06:04:00,
2013-05-27 22:09:00,69.4,36.6,29.71,North,360,0.0,2.0,30,0.00,,,0.00,Wunderground v.1.15,2013-05-28 06:09:00,
2013-05-27 22:14:00,69.3,37.3,29.71,North,360,0.0,2.0,31,0.00,,,0.00,Wunderground v.1.15,2013-05-28 06:14:00,
2013-05-27 22:19:00,68.9,37.0,29.71,North,360,0.0,2.0,31,0.00,,,0.00,Wunderground v.1.15,2013-05-28 06:19:00,
2013-05-27 22:24:00,68.8,37.7,29.71,North,360,0.0,1.0,32,0.00,,,0.00,Wunderground v.1.15,2013-05-28 06:24:00,
2013-05-27 22:29:00,68.4,38.2,29.71,North,360,0.0,1.0,33,0.00,,,0.00,Wunderground v.1.15,2013-05-28 06:29:00,
2013-05-27 22:34:00,67.9,38.5,29.71,North,360,0.0,0.0,34,0.00,,,0.00,Wunderground v.1.15,2013-05-28 06:34:00,
2013-05-27 22:40:00,67.4,38.8,29.71,North,360,0.0,0.0,35,0.00,,,0.00,Wunderground v.1.15,2013-05-28 06:40:00,
2013-05-27 22:45:00,66.9,38.3,29.71,North,360,0.0,1.0,35,0.00,,,0.00,Wunderground v.1.15,2013-05-28 06:45:00,